DMSP 5D-2 F13 DEB, 40517

Orbit data source: Space-Track

DMSP 5D-2 F13 DEB, 40517 is space debris in SSO originally from a launch on Fri, 24 Mar 1995 UTC launched from the Air Force Western Test Range (AFWTR). Debris objects in space refer to the collection of defunct objects orbiting the Earth. Examples of debris include non-operational satellites, rocket bodies, and fragments generated from explosions, collisions, or faulty payload assembly.

Loading next visibility...
Identifier
40517, 1995-015DD
Orbit
SSO
Country
Flag of USUS
Related business
Manufacturer
Unknown
Mission
Spacecraft
Bus & Motor
Unknown
Mass
Unknown
Launch date (UTC)
1995-03-24 (31 years ago)
Launch vehicle
Unknown
Launch site
Air Force Western Test Range (AFWTR)
Object type
Payload
Rocket body
Debris
Shape & HBR
Unknown shape, 0.1 m
Radar Cross Section
Small (<0.1 m²)

Expand to show TLE details & history
Last TLE update: 22 hours ago

TLE from 22 hours ago
0 DMSP 5D-2 F13 DEB
1 40517U 95015DD  25340.08662439  .00013549  00000-0  34597-2 0  9991
2 40517  98.5967  23.6564 0017499 358.5444   1.5696 14.50514075558144
Epoch: 2025-12-06T02:04Z
TLE epoch observation values (Epoch: 2025-12-06T02:04:44.347Z)
Latitude
0.00001°
Longitude
-82.64779°
Altitude
714.504 km
Speed
7.505 km/s
True Right ascension
01h 34m 37s
True Declination
0° 00' 00"
Sunlit
Object was in full shadow at epoch
Visualization orbit readout
Latitude
Unknown
Longitude
Unknown
Altitude
Unknown
Speed
Unknown
Apparent Right ascension
Unknown
Apparent Declination
Unknown
Sunlit
N/A
Visualization observer readout
Local Sidereal Time
21:53:58
Azimuth
Unknown
Elevation
Unknown
Doppler factor
Unknown
Orbital elements
Apogee altitude
733.505 km
Perigee altitude
708.66 km
Semi-major axis
7,099.219 km
Eccentricity
0.00175
Inclination
98.5967°
RAAN
23.6564°
Arg. of periapsis
358.5444°
True anomaly
1.5751°
Mean anomaly
1.5696°
Eccentric anomaly
1.57235°
Mean motion
3.6285 °/min
Orbital period
99.21 mins
BSTAR
0.0034597

Documentation

Showing up to 5 results
|